Погода в Чирчике

Узбекистан     41˚28′21″N   69˚34′52″E
темп.,
°C
ветер,
м/с
пор.,
м/с
влажн.,
%
обл.,
%
осадки,
мм/ч
давл.,
гПа
погр.,
м
5 декабря, сб
сб523:00−5˚в12830 0.0 103221
02:00−5˚в22790 0.0 103222
05:00−5˚всв23760 0.0 103324
08:00−6˚в23710 0.0 103323
11:00−1˚юв12670 0.0 1032202
14:00з11690 0.0 1030276
17:00−4˚ссв128128 0.0 103221
20:00−5˚в337212 0.0 103228
6 декабря, вс
вс623:00−5˚всв44616 0.0 103254
02:00−5˚всв44600 0.0 103258
05:00−6˚всв44590 0.0 103348
08:00−3˚всв336379 0.0 103345
11:00+1˚всв127180 0.0 1032118
14:00+3˚ссз0180100 0.0 1030143
17:00св128599 0.0 103124
20:00юв0185100 0.0 103122
7 декабря, пн
пн723:00−2˚всв118294 0.0 102922
02:00−2˚всв22722 0.0 102923
05:00−2˚всв117234 0.0 102721
08:00−2˚вюв2278100 0.0 102922
11:00ю348153 0.0 1029312
14:00+1˚ююз236715 0.0 1028609
17:00−2˚ююз127748 0.0 103030
20:00−4˚ююв128020 0.0 103222
8 декабря, вт
вт823:00−4˚ююв227956 0.0 103327
02:00−5˚ю127823 0.0 103322
05:00−5˚вюв117616 0.0 103321
08:00−5˚ююв117660 0.0 103524
11:00−3˚юз226347 0.0 1035347
14:00−2˚зсз116125 0.0 1035503
17:00−4˚ссз117525 0.0 103721
20:00−5˚вюв22780 0.0 103822
9 декабря, ср
ср923:00−5˚всв12760 0.0 103923
02:00−6˚всв12620 0.0 103924
05:00−6˚всв22560 0.0 103824
08:00−6˚всв22530 0.0 103826
11:00−1˚сз11460 0.0 1036159
14:00ссз23520 0.0 1034257
17:00−4˚ссв11660 0.0 103421
20:00−4˚в22630 0.0 103324